Current weather by "City, St" or "zip code"  
 
Advertise Here

Current Conditions: Pullman / Moscow Regional Airport, WA

Overcast


34.0 F

Last Updated on Jan 21 2021, 1:53 am PST
Humidity: 73%
Wind Speed: NE 5.8 mph
Barometer 30.07 in
Dewpoint: 26.1 F
Visibility: 10.00 mi
Precip: --
Heat Index: NA
Wind Chill: 29 F
Current conditions at:

Pullman / Moscow Regional Airport, WA (KPUW)

Lat: 46.74377 Lon: 117.11579

Local Radar Image active severe weather and emergency alerts image image weather storm and storm spotter reports image weather observation monitoring service image
Local
Radar
Active
Alerts
Storm Reports Obs
Monitoring

Sign-up For Email & Text Message Weather Alert Notification Services


Advertise Here

Observation History for Pullman / Moscow Regional Airport, WA


Time Wind
(mph)
Vis
(mi)
Weather Precip (in) Temperature (F) Relative
Humidity
Wind
Chill
(F)
Heat
Index
(F)
Pressure
Air Dwpt altimeter
(in)
sea level
(mb)
Rmks
1:53 am PST NE 5.8 10.00 Overcast -- 34.0 26.1 73% 29 NA 30.07 1020.1
12:53 am PST NE 3.5 10.00 Partly Cloudy -- 33.0 26.1 75% NA NA 30.07 1020.4
11:53 pm PST E 4.6 10.00 Overcast -- 34.0 26.1 73% 30 NA 30.08 1020.5
10:53 pm PST NE 3.5 10.00 Partly Cloudy -- 34.0 26.1 73% NA NA 30.08 1020.7
9:53 pm PST E 3.5 10.00 Overcast -- 35.0 26.1 70% NA NA 30.08 1020.8
8:53 pm PST NE 3.5 10.00 Overcast -- 36.0 25.0 64% NA NA 30.08 1020.7
7:53 pm PST E 3.5 10.00 Overcast -- 36.0 25.0 64% NA NA 30.08 1020.8
6:53 pm PST NE 3.5 10.00 Overcast -- 35.0 26.1 70% NA NA 30.08 1020.8
5:53 pm PST E 4.6 10.00 Overcast -- 35.0 26.1 70% 31 NA 30.08 1020.9
4:53 pm PST E 4.6 10.00 Overcast -- 36.0 27.0 70% 32 NA 30.08 1021.0
3:53 pm PST SE 6.9 10.00 Overcast -- 37.0 26.1 65% 32 NA 30.08 1020.7
2:53 pm PST SE 6.9 10.00 Overcast -- 38.0 26.1 62% 33 NA 30.08 1020.9
1:53 pm PST SE 6.9 10.00 Mostly Cloudy -- 37.0 26.1 65% 32 NA 30.08 1020.6
12:53 pm PST E 6.9 10.00 Mostly Cloudy -- 37.0 26.1 65% 32 NA 30.09 1021.1
11:53 am PST E 9.2 10.00 Mostly Cloudy -- 37.0 26.1 65% 30 NA 30.11 1021.5
10:53 am PST E 6.9 10.00 Overcast -- 36.0 25.0 64% 30 NA 30.14 1022.8
9:53 am PST E 8.1 10.00 Overcast -- 34.0 25.0 70% 27 NA 30.14 1023.0
8:53 am PST E 9.2 10.00 Overcast -- 33.0 24.1 70% 25 NA 30.14 1022.9
7:53 am PST E 8.1 10.00 Overcast -- 32.0 24.1 73% 25 NA 30.14 1022.9
6:53 am PST E 8.1 10.00 Overcast -- 32.0 24.1 73% 25 NA 30.14 1023.1
5:53 am PST E 10.4 10.00 Overcast -- 31.0 24.1 76% 22 NA 30.14 1023.1
4:53 am PST NE 6.9 10.00 Fair -- 29.0 23.0 78% 22 NA 30.15 1023.4
3:53 am PST NE 5.8 10.00 Fair -- 30.0 24.1 79% 24 NA 30.16 1023.6
2:53 am PST E 6.9 10.00 Fair -- 30.0 24.1 79% 23 NA 30.17 1024.0

Regional Weather Observation


Lewiston, Lewiston-Nez Perce County Airport, ID (KLWS)

A Few Clouds
34.0 F

Spokane, Spokane International Airport, WA (KGEG)

Mostly Cloudy
28.0 F

Fairchild Air Force Base, WA (KSKA)

Fair
30.0 F

Spokane, Felts Field, WA (KSFF)

A Few Clouds
29.0 F

Coeur dAlene Airport - Pappy Boyington Field, ID (KCOE)

Fair
28.0 F

Deer Park, Deer Park Airport, WA (KDEW)

Mostly Cloudy
29.0 F